Mobile, AL

4:25 AM CDT on March 28, 2017 (GMT -0500)
Mobile Regional

Weather History for KMOB - May, 2012

Change the Weather History Date:

Thursday, May 17, 2012

  Actual Average Record
Temperature  
Mean Temperature 74 °F 74 °F  
Max Temperature 87 °F 85 °F 94 °F (1988)
Min Temperature 61 °F 64 °F 46 °F (2011)
Cooling Degree Days 9 10  
Month to date cooling degree days 166 130  
Year to date cooling degree days 509 289  
Growing Degree Days 24 (Base 50)    
Moisture  
Dew Point 58 °F    
Average Humidity 61    
Maximum Humidity 90    
Minimum Humidity 31    
Precipitation  
Precipitation 0.00 in 0.16 in 4.55 in (1980)
Month to date precipitation 7.68 2.73  
Year to date precipitation 26.37 24.43  
Sea Level Pressure  
Sea Level Pressure 29.95 in    
Wind  
Wind Speed 4 mph (North)    
Max Wind Speed 13 mph    
Max Gust Speed 17 mph    
Visibility 10 miles    
Events      
T = Trace of Precipitation, MM = Missing Value Source: NWS Daily Summary

Daily Weather History Graph

Daily Weather History Graph

Search for Another Location

Airport or City:

Trip Planner

Search our weather history database for the weather conditions in past years. The results will help you decide how hot, cold, wet, or windy it might be!

Date:

Astronomy

May. 17, 2012 Rise Set
Actual Time 5:56 AM CDT 7:42 PM CDT
Civil Twilight 5:30 AM CDT 8:08 PM CDT
Nautical Twilight 4:58 AM CDT 8:41 PM CDT
Astronomical Twilight 4:24 AM CDT 9:14 PM CDT
Moon 3:44 AM CDT (5/17) 5:02 PM CDT (5/17)
Length of Visible Light 14h 38m
Length of Day
13h 45m
Waning Crescent, 9% of the Moon is Illuminated
May 17
Waning Crescent
May 20
New
May 28
First Quarter
Jun 4
Full
Jun 11
Last Quarter

Hourly Weather History & Observations

Time (CDT) Temp. Heat Index Dew Point Humidity Pressure Visibility Wind Dir Wind Speed Gust Speed Precip Events Conditions
12:56 AM 64.9 °F - 57.0 °F 75% 29.96 in 10.0 mi Calm Calm - N/A   Partly Cloudy
1:56 AM 66.9 °F - 57.0 °F 70% 29.95 in 10.0 mi Calm Calm - N/A   Partly Cloudy
2:56 AM 63.0 °F - 57.0 °F 81% 29.94 in 10.0 mi Calm Calm - N/A   Partly Cloudy
3:56 AM 61.0 °F - 57.0 °F 87% 29.95 in 10.0 mi Calm Calm - N/A   Partly Cloudy
4:56 AM 62.1 °F - 57.0 °F 84% 29.95 in 10.0 mi North 3.5 mph - N/A   Partly Cloudy
5:56 AM 62.6 °F - 57.2 °F 82% 29.97 in 10.0 mi Calm Calm - N/A   Partly Cloudy
6:56 AM 64.9 °F - 57.9 °F 78% 29.97 in 10.0 mi Calm Calm - N/A   Clear
7:56 AM 71.1 °F - 61.0 °F 70% 29.99 in 10.0 mi Calm Calm - N/A   Partly Cloudy
8:56 AM 77.0 °F - 60.1 °F 56% 30.00 in 10.0 mi North 5.8 mph - N/A   Clear
9:56 AM 80.1 °F 80.7 °F 59.0 °F 48% 30.00 in 10.0 mi North 8.1 mph - N/A   Clear
10:56 AM 82.0 °F 82.0 °F 57.9 °F 44% 29.99 in 10.0 mi North 9.2 mph - N/A   Partly Cloudy
11:56 AM 84.0 °F 83.5 °F 57.9 °F 41% 29.99 in 10.0 mi North 10.4 mph - N/A   Scattered Clouds
12:56 PM 86.0 °F 84.9 °F 57.0 °F 37% 29.97 in 10.0 mi NNE 8.1 mph - N/A   Scattered Clouds
1:56 PM 86.0 °F 84.7 °F 55.9 °F 36% 29.96 in 10.0 mi NNE 10.4 mph - N/A   Scattered Clouds
2:56 PM 87.1 °F 84.9 °F 53.1 °F 31% 29.94 in 10.0 mi NE 4.6 mph - N/A   Scattered Clouds
3:56 PM 84.0 °F 82.9 °F 55.0 °F 37% 29.93 in 10.0 mi North 9.2 mph - N/A   Mostly Cloudy
4:56 PM 86.0 °F 84.2 °F 54.0 °F 33% 29.91 in 10.0 mi NNE 8.1 mph - N/A   Scattered Clouds
5:56 PM 84.9 °F 83.3 °F 54.0 °F 34% 29.91 in 10.0 mi NNE 6.9 mph - N/A   Scattered Clouds
6:56 PM 82.9 °F 82.0 °F 55.0 °F 38% 29.91 in 10.0 mi North 3.5 mph - N/A   Partly Cloudy
7:56 PM 73.9 °F - 61.0 °F 64% 29.92 in 10.0 mi Calm Calm - N/A   Partly Cloudy
8:56 PM 73.9 °F - 62.1 °F 66% 29.94 in 10.0 mi SW 3.5 mph - N/A   Partly Cloudy
9:56 PM 73.9 °F - 63.0 °F 68% 29.95 in 10.0 mi Calm Calm - N/A   Mostly Cloudy
10:56 PM 69.1 °F - 63.0 °F 81% 29.96 in 10.0 mi Calm Calm - N/A   Scattered Clouds
11:56 PM 66.9 °F - 63.0 °F 87% 29.96 in 10.0 mi Calm Calm - N/A   Scattered Clouds